Date String (YYYY-MM-DD hh:mm:ss) UTC,Instrument flags,Ambient pressure (hPa),Sample flow (lpm),Bypass flow (lpm),Sample temperature (°C),Ambient temperature (°C),ASC tube jacket temperature (°C),LED temperature (°C),Box temperature (°C),Sample RH (%),Span deviation,Mass concentration (μg/m³),Mass concentration (μg/m³),Mass concentration (μg/m³)
DateTimeUTC,F1_M11,P_M11,Q1_M11,Q2_M11,T1_M11,T2_M11,T3_M11,T4_M11,T5_M11,U1_M11,ZSPAN_M11,X2_M11,X0_M11,X1_M11
2023-04-14 19:00:00,,0823.0,5.00,0.00,23.0,21.4,00.0,31.4,24.6,20.6,0000.0,0003.29,0005.23,0003.04
2023-04-14 19:01:00,,0823.0,5.00,0.00,23.0,21.4,00.0,31.4,24.5,20.7,0000.0,0003.26,0005.13,0003.03
2023-04-14 19:02:00,,0822.9,5.01,0.00,23.0,21.4,00.0,31.4,24.6,20.8,0000.0,0003.24,0004.90,0003.03
2023-04-14 19:03:00,,0822.7,5.00,0.00,23.0,21.4,00.0,31.4,24.5,20.6,0000.0,0003.20,0004.67,0003.01
2023-04-14 19:04:00,,0822.8,5.01,0.00,23.0,21.4,00.0,31.4,24.5,20.7,0000.0,0003.21,0004.70,0003.04
2023-04-14 19:05:00,,0822.6,5.00,0.00,23.0,21.4,00.0,31.4,24.6,20.6,0000.0,0003.21,0004.70,0003.05
2023-04-14 19:06:00,,0822.5,5.00,0.00,23.0,21.4,00.0,31.4,24.6,20.4,0000.0,0003.22,0004.75,0003.04
2023-04-14 19:07:00,,0822.4,4.99,0.00,23.0,21.4,00.0,31.4,24.6,20.8,0000.0,0003.23,0004.76,0003.06
2023-04-14 19:08:00,,0822.8,4.99,0.00,23.0,21.4,00.0,31.4,24.6,21.1,0000.0,0003.23,0004.74,0003.05
2023-04-14 19:09:00,,0822.7,5.01,0.00,23.1,21.4,00.0,31.4,24.6,20.8,0000.0,0003.22,0004.73,0003.05
2023-04-14 19:10:00,,0822.8,5.01,0.00,23.0,21.4,00.0,31.4,24.6,20.7,0000.0,0003.21,0004.52,0003.05
2023-04-14 19:11:00,,0822.6,5.01,0.00,23.0,21.4,00.0,31.4,24.6,20.7,0000.0,0003.22,0004.05,0003.05
2023-04-14 19:12:00,,0822.8,4.99,0.00,23.0,21.4,00.0,31.4,24.6,20.2,0000.0,0003.23,0004.81,0003.03
2023-04-14 19:13:00,,0822.5,4.99,0.00,23.1,21.4,00.0,31.4,24.6,20.0,0000.0,0003.26,0005.18,0003.03
2023-04-14 19:14:00,,0822.5,5.00,0.00,23.1,21.4,00.0,31.4,24.6,19.8,0000.0,0003.26,0005.21,0003.03
2023-04-14 19:15:00,,0822.4,5.00,0.00,23.1,21.4,00.0,31.4,24.6,20.2,0000.0,0003.25,0005.26,0003.00
2023-04-14 19:16:00,,0822.4,5.00,0.00,23.1,21.4,00.0,31.4,24.6,20.6,0000.0,0003.24,0005.28,0002.98
2023-04-14 19:17:00,,0822.4,4.99,0.00,23.1,21.4,00.0,31.4,24.6,20.7,0000.0,0003.26,0005.36,0002.98
2023-04-14 19:18:00,,0822.4,5.01,0.00,23.1,21.4,00.0,31.4,24.6,20.8,0000.0,0003.27,0005.67,0003.00
2023-04-14 19:19:00,,0822.4,5.00,0.00,23.1,21.4,00.0,31.4,24.6,20.7,0000.0,0003.29,0005.83,0003.02
2023-04-14 19:20:00,,0822.4,5.00,0.00,23.1,21.4,00.0,31.4,24.6,21.0,0000.0,0003.32,0005.89,0003.04
2023-04-14 19:21:00,,0822.3,5.00,0.00,23.1,21.3,00.0,31.4,24.6,21.3,0000.0,0003.33,0005.92,0003.05
2023-04-14 19:22:00,,0822.4,5.02,0.00,23.1,21.4,00.0,31.4,24.6,21.9,0000.0,0003.35,0005.97,0003.09
2023-04-14 19:23:00,,0822.4,5.00,0.00,23.0,21.4,00.0,31.4,24.6,21.4,0000.0,0003.38,0005.39,0003.13
2023-04-14 19:24:00,,0822.4,5.00,0.00,23.0,21.4,00.0,31.3,24.6,21.0,0000.0,0003.37,0005.09,0003.15
2023-04-14 19:25:00,,0822.4,4.99,0.00,23.0,21.4,00.0,31.4,24.6,20.9,0000.0,0003.40,0005.09,0003.18
2023-04-14 19:26:00,,0822.4,4.99,0.00,23.0,21.4,00.0,31.4,24.6,21.0,0000.0,0003.44,0005.17,0003.21
2023-04-14 19:27:00,,0822.4,5.00,0.00,23.0,21.4,00.0,31.4,24.6,20.9,0000.0,0003.48,0005.29,0003.24
2023-04-14 19:28:00,,0822.4,5.00,0.00,23.0,21.4,00.0,31.3,24.6,20.3,0000.0,0003.48,0005.24,0003.26
2023-04-14 19:29:00,,0822.4,5.00,0.00,23.0,21.4,00.0,31.3,24.6,20.5,0000.0,0003.48,0005.02,0003.28
2023-04-14 19:30:00,,0822.4,5.00,0.00,23.0,21.4,00.0,31.3,24.6,20.2,0000.0,0003.49,0004.81,0003.30
2023-04-14 19:31:00,,0822.3,5.01,0.00,23.0,21.4,00.0,31.3,24.6,19.9,0000.0,0003.49,0004.87,0003.30
2023-04-14 19:32:00,,0822.2,5.00,0.00,23.0,21.3,00.0,31.3,24.6,19.9,0000.0,0003.52,0004.99,0003.29
2023-04-14 19:33:00,,0822.3,5.00,0.00,23.0,21.3,00.0,31.3,24.6,20.4,0000.0,0003.50,0004.84,0003.28
2023-04-14 19:34:00,,0822.4,5.01,0.00,23.0,21.3,00.0,31.3,24.6,20.1,0000.0,0003.45,0004.66,0003.26
2023-04-14 19:35:00,,0822.4,5.00,0.00,23.0,21.3,00.0,31.3,24.6,19.6,0000.0,0003.42,0004.52,0003.23
2023-04-14 19:36:00,,0822.4,5.00,0.00,23.0,21.3,00.0,31.3,24.5,19.5,0000.0,0003.39,0004.33,0003.21
2023-04-14 19:37:00,,0822.4,4.99,0.00,23.0,21.3,00.0,31.3,24.5,19.4,0000.0,0003.36,0004.18,0003.19
2023-04-14 19:38:00,,0822.4,5.00,0.00,23.0,21.3,00.0,31.3,24.6,19.4,0000.0,0003.34,0004.09,0003.17
2023-04-14 19:39:00,,0822.4,4.99,0.00,23.0,21.3,00.0,31.3,24.5,19.9,0000.0,0003.31,0004.00,0003.15
2023-04-14 19:40:00,,0822.4,4.99,0.00,23.0,21.3,00.0,31.3,24.6,19.7,0000.0,0003.31,0004.14,0003.13
2023-04-14 19:41:00,,0822.4,5.01,0.00,23.0,21.3,00.0,31.3,24.5,19.7,0000.0,0003.29,0005.01,0003.10
2023-04-14 19:42:00,,0822.4,5.02,0.00,23.0,21.3,00.0,31.3,24.6,20.3,0000.0,0003.27,0004.99,0003.08
2023-04-14 19:43:00,,0822.4,4.99,0.00,23.0,21.3,00.0,31.3,24.6,20.2,0000.0,0003.24,0004.85,0003.07
2023-04-14 19:44:00,,0822.4,4.98,0.00,23.0,21.3,00.0,31.3,24.6,20.0,0000.0,0003.23,0004.89,0003.06
2023-04-14 19:45:00,,0822.4,5.00,0.00,23.0,21.3,00.0,31.3,24.6,20.2,0000.0,0003.26,0007.41,0003.07
2023-04-14 19:46:00,,0822.4,5.01,0.00,23.0,21.3,00.0,31.3,24.6,19.8,0000.0,0003.28,0007.71,0003.08
2023-04-14 19:47:00,,0822.4,5.00,0.00,23.0,21.3,00.0,31.3,24.6,19.4,0000.0,0003.29,0007.75,0003.08
2023-04-14 19:48:00,,0822.3,5.00,0.00,23.0,21.3,00.0,31.3,24.6,19.7,0000.0,0003.28,0007.73,0003.09
2023-04-14 19:49:00,,0822.4,5.00,0.00,23.0,21.3,00.0,31.3,24.5,19.6,0000.0,0003.29,0007.73,0003.09
2023-04-14 19:50:00,,0822.3,5.01,0.00,23.0,21.3,00.0,31.3,24.5,19.6,0000.0,0003.31,0007.82,0003.10
2023-04-14 19:51:00,,0822.3,4.99,0.00,23.0,21.3,00.0,31.3,24.5,19.9,0000.0,0003.29,0007.80,0003.09
2023-04-14 19:52:00,,0822.4,5.00,0.00,23.0,21.3,00.0,31.3,24.5,20.0,0000.0,0003.28,0007.82,0003.09
2023-04-14 19:53:00,,0822.4,5.00,0.00,23.0,21.3,00.0,31.3,24.5,19.4,0000.0,0003.25,0007.91,0003.08
2023-04-14 19:54:00,,0822.3,5.00,0.00,23.0,21.3,00.0,31.3,24.5,19.0,0000.0,0003.24,0008.03,0003.07
2023-04-14 19:55:00,,0822.4,5.01,0.00,23.0,21.3,00.0,31.3,24.5,19.0,0000.0,0003.23,0008.26,0003.04
2023-04-14 19:56:00,,0822.3,5.01,0.00,23.0,21.3,00.0,31.3,24.5,19.1,0000.0,0003.21,0006.83,0003.00
2023-04-14 19:57:00,,0822.4,5.00,0.00,23.0,21.3,00.0,31.3,24.5,19.4,0000.0,0003.19,0005.96,0002.98
2023-04-14 19:58:00,,0822.3,5.00,0.00,23.0,21.3,00.0,31.3,24.5,19.8,0000.0,0003.18,0005.95,0002.97
2023-04-14 19:59:00,,0822.3,4.98,0.00,23.0,21.3,00.0,31.3,24.6,19.9,0000.0,0003.19,0006.08,0002.96
